Content
SEND FEEDBACK

French Polynesia Flag

PAPEETE, FRENCH POLYNESIA


Home > Oceania > French Polynesia
Elevation: 7 feet     Latitude: 17 33S     Longitude: 149 36W

WEATHER
 
SELECT A DAY
Number of Records: 219,505;   Date Range: 6/30/96 - 1/25/15
 
SHARE

PRINT THIS DATA

[ ← Previous Day ]
WEATHER ALMANAC - AUGUST 18, 2014
[ Next Day → ]
[ °C ]   °F
Weather ElementAverageHighLow
Temperature79.6 °F84.2 °F (2:30 pm)75 °F (11:00 pm)
Dewpoint70.6 °F75.2 °F (11:30 am)66.2 °F (5:00 pm)
Humidity73.3 %89 % (6:00 pm)60 % (8:00 pm)
Barometer29.96 in30.01 in (12:00 am)29.89 in (3:30 pm)
Wind Speed9 mph16.1 mph (10:30 am)
Weather ElementAverage
Visibility7.4 mi
Wind DirectionENE (53.4 °)

Weather ElementTotal
Precipitation---
Cooling Degree Days14.6 (Base 65)
Growing Degree Days29.6 (Base 50)
Averaged from 56 records on August 18, 2014
WEATHER CONDITIONS BREAKOUT
WIND DIRECTION BREAKOUT
WEATHER BY HOUR - AUGUST 18, 2014
[ °C ]   °F
Local TimeTemperatureDewpointHumidityBarometerVisibilityWind DirectionWind SpeedGust SpeedPrecipitationEventsConditions
12:00 AM77.0 °F69.8 °F78 %29.98 in6.2 miNE (50°)4.6 mphMostly Cloudy
12:30 AM77.0 °F68.0 °F74 %29.98 in6.2 miNE (50°)4.6 mphMostly Cloudy
1:00 AM77.0 °F68.0 °F74 %29.98 in6.2 miNE (40°)6.9 mphMostly Cloudy
1:45 AM77.0 °F68.0 °F74 %29.95 in6.2 miNE (50°)3.5 mphMostly Cloudy
2:00 AM78.0 °F69.0 °F66 %29.97 in12.0 miNE (40°)4.6 mphMostly Cloudy
2:00 AM77.0 °F68.0 °F74 %29.95 in6.2 miNE (40°)4.6 mphMostly Cloudy
2:30 AM77.0 °F68.0 °F74 %29.95 in6.2 miSouth (180°)5.8 mphMostly Cloudy
3:00 AM77.0 °F68.0 °F74 %29.95 in6.2 miSouth (190°)3.5 mphMostly Cloudy
3:30 AM75.2 °F66.2 °F73 %29.95 in6.2 miVariable1.2 mphMostly Cloudy
4:00 AM75.2 °F68.0 °F78 %29.95 in6.2 miVariable3.5 mphPartly Cloudy
4:30 AM75.2 °F68.0 °F78 %29.95 in6.2 miENE (60°)5.8 mphPartly Cloudy
5:00 AM77.0 °F69.0 °F68 %29.97 in37.0 miNE (50°)6.9 mphClear
5:00 AM77.0 °F68.0 °F74 %29.95 in6.2 miNE (50°)6.9 mphMostly Cloudy
5:30 AM77.0 °F69.8 °F78 %29.98 in6.2 miNNE (30°)16.1 mphMostly Cloudy
6:00 AM77.0 °F69.8 °F78 %29.98 in6.2 miNE (50°)10.4 mphMostly Cloudy
6:30 AM75.2 °F69.8 °F83 %29.98 in6.2 miEast (80°)5.8 mphPartly Cloudy
7:00 AM77.0 °F69.8 °F78 %29.98 in6.2 miENE (60°)5.8 mphScattered Clouds
7:30 AM78.8 °F69.8 °F74 %29.98 in6.2 miENE (70°)8.1 mphPartly Cloudy
8:00 AM80.0 °F71.0 °F67 %30.01 in12.0 miNE (50°)8.1 mphPartly Cloudy
8:00 AM80.6 °F71.6 °F74 %30.01 in6.2 miNE (50°)8.1 mphScattered Clouds
8:30 AM82.4 °F71.6 °F70 %30.01 in6.2 miNE (50°)9.2 mphScattered Clouds
9:00 AM82.4 °F71.6 °F70 %30.01 in6.2 miNE (40°)11.5 mphPartly Cloudy
9:30 AM84.2 °F71.6 °F66 %30.01 in6.2 miNE (40°)11.5 mphPartly Cloudy
10:00 AM84.2 °F71.6 °F66 %30.01 in6.2 miNE (40°)12.7 mphPartly Cloudy
10:30 AM84.2 °F71.6 °F66 %29.98 in6.2 miNE (40°)11.5 mphPartly Cloudy
11:00 AM82.0 °F72.0 °F65 %29.98 in12.0 miNNE (30°)15.0 mphPartly Cloudy
11:00 AM82.4 °F71.6 °F70 %29.98 in6.2 miNNE (30°)15.0 mphScattered Clouds
11:30 AM82.4 °F75.2 °F79 %29.95 in6.2 miNE (40°)13.8 mphMostly Cloudy
12:00 PM84.2 °F71.6 °F66 %29.95 in6.2 miNE (50°)15.0 mphPartly Cloudy
12:30 PM84.2 °F73.4 °F70 %29.95 in6.2 miNE (40°)12.7 mphPartly Cloudy
1:00 PM84.2 °F71.6 °F66 %29.92 in6.2 miNNE (30°)15.0 mphPartly Cloudy
1:30 PM84.2 °F73.4 °F70 %29.92 in6.2 miNE (40°)15.0 mphPartly Cloudy
2:00 PM83.0 °F71.0 °F60 %29.92 in12.0 miNE (40°)13.8 mphPartly Cloudy
2:00 PM84.2 °F71.6 °F66 %29.92 in6.2 miNE (40°)13.8 mphMostly Cloudy
2:30 PM84.2 °F71.6 °F66 %29.89 in6.2 miNE (40°)12.7 mphPartly Cloudy
3:00 PM84.2 °F71.6 °F66 %29.89 in6.2 miNE (50°)12.7 mphScattered Clouds
3:30 PM84.2 °F71.6 °F66 %29.89 in6.2 miNE (40°)12.7 mphPartly Cloudy
4:00 PM82.4 °F71.6 °F70 %29.89 in6.2 miNE (40°)12.7 mphPartly Cloudy
4:30 PM82.4 °F71.6 °F70 %29.92 in6.2 miNE (40°)12.7 mphScattered Clouds
5:00 PM81.0 °F71.0 °F66 %29.93 in12.0 miNE (40°)12.7 mphScattered Clouds
5:00 PM80.6 °F71.6 °F74 %29.92 in6.2 miNE (40°)12.7 mphPartly Cloudy
5:30 PM80.6 °F71.6 °F74 %29.92 in6.2 miNE (40°)11.5 mphPartly Cloudy
6:00 PM80.6 °F71.6 °F74 %29.95 in6.2 miNE (40°)11.5 mphPartly Cloudy
6:30 PM80.6 °F71.6 °F74 %29.95 in6.2 miNE (40°)11.5 mphPartly Cloudy
7:00 PM78.8 °F71.6 °F78 %29.95 in6.2 miNE (40°)10.4 mphPartly Cloudy
7:30 PM80.6 °F71.6 °F74 %29.98 in6.2 miNE (40°)9.2 mphPartly Cloudy
8:00 PM78.0 °F72.0 °F76 %29.99 in6.0 miENE (70°)8.1 mphRainLight Rain Showers
8:00 PM78.8 °F71.6 °F78 %29.98 in6.2 miENE (70°)8.1 mphScattered Clouds
8:30 PM78.8 °F71.6 °F78 %29.98 in6.2 miENE (60°)4.6 mphScattered Clouds
9:00 PM77.0 °F71.6 °F83 %30.01 in6.2 miENE (60°)4.6 mphScattered Clouds
9:30 PM77.0 °F71.6 °F83 %29.98 in6.2 miEast (80°)6.9 mphScattered Clouds
10:00 PM77.0 °F69.8 °F78 %29.98 in6.2 miEast (80°)3.5 mphScattered Clouds
10:30 PM75.2 °F69.8 °F83 %29.98 in6.2 miEast (80°)3.5 mphPartly Cloudy
11:00 PM75.0 °F71.0 °F83 %29.99 in12.0 miEast (80°)3.5 mphScattered Clouds
11:00 PM75.2 °F71.6 °F89 %29.98 in6.2 miEast (80°)3.5 mphPartly Cloudy
11:30 PM75.2 °F69.8 °F83 %29.98 in6.2 miEast (100°)3.5 mphScattered Clouds
Hourly data recorded from NTAA, located miles away from Papeete, French Polynesia







STORIES FROM OUR PARTNERS